Location: *
(42.0175°N, 9.4056°E)
Time: 01:19:38
(UTC+00:00)

SPOT 1/Viking Rocket - Pass Details

Date: 25 August 2019
Orbit: 777 x 795 km, 98.5° (Epoch: 17 October)

Event Time Altitude Azimuth Distance (km) Brightness Sun altitude
Exits shadow 20:47:49 80° 89° (E) 812 3.4 -26.3°
Maximum altitude 20:47:53 80° 75° (ENE) 812 3.4 -26.3°
Drops below altitude 10° 20:53:08 10° 349° (N) 2,370 6.8 -27.0°
Sets 20:55:28 0° 348° (NNW) 3,303 7.7 -27.2°
